Location: Fours
(44.3167°N, 6.7000°E)
Time: 12:43:40
(UTC+00:00)

USA 281 - Pass Details

Date: 30 November 2020
Orbit: 1074 x 1084 km, 106.0° (Epoch: 22 January)

Event Time Altitude Azimuth Distance (km) Brightness Sun altitude
Rises 16:25:44 0° 103° (ESE) 3,877 5.7 -5.6°
Reaches altitude 10° 16:28:57 10° 88° (E) 2,923 4.9 -6.1°
Maximum altitude 16:33:27 20° 44° (NE) 2,262 4.4 -6.9°
Drops below altitude 10° 16:37:58 10° 0° (N) 2,926 5.3 -7.6°
Sets 16:41:10 0° 345° (NNW) 3,884 6.1 -8.1°
